Back to catalog

COSMOS 2580

AliveNavigationLEO
NORAD 62216·PAYLOAD·🇷🇺 Russia

Launched Dec 4, 2024 from Plesetsk Cosmodrome

Loading…

Next Passes (next 24 hours)

TLE

FreshSource: Space-Track

Epoch: Sep 14, 2026, 04:11 UTC

1 62216U 24230A   26257.17455392 -.00000037  00000-0  27548-4 0  9997
2 62216  67.1477 194.5566 0005474 265.7339  94.3120 13.96677190 90560

Track COSMOS 2580 in real time with AllMySat

Download on the App Store